This demonstration page uses our WeatherBlox Daily Observations layout. Learn more.

Hourly Observations for January 13, 2015

Temp ( °F °C ) Dew Point ( °F °C ) Humidity (%) Winds ( mph kmh ) Pressure ( in mb ) Visibility ( mi km ) Precip ( " mm )
12:15 am 00:15 Cloudy 13 -10.8 3 -16.2 65 65 ESE 8 13 30.77 1042 10 16.0934 0 0
12:35 am 00:35 Cloudy 12 -11.2 2 -16.8 64 64 SE 7 11 30.77 1042 10 16.0934 0 0
12:55 am 00:55 Cloudy 12 -11.2 2 -16.6 65 65 ESE 7 11 30.77 1042 10 16.0934 0 0
1:15 am 01:15 Cloudy 12 -11.3 1 -17 63 63 SE 7 11 30.74 1041 10 16.0934 0 0
1:35 am 01:35 Cloudy 11 -11.5 1 -17.2 63 63 SE 8 13 30.74 1041 10 16.0934 0 0
1:55 am 01:55 Cloudy 11 -11.5 1 -17 64 64 SE 8 13 30.74 1041 10 16.0934 0 0
2:15 am 02:15 Cloudy 11 -11.5 2 -16.8 65 65 SE 6 9 30.74 1041 10 16.0934 0 0
2:35 am 02:35 Cloudy 11 -11.4 2 -16.7 65 65 SE 7 11 30.74 1041 10 16.0934 0 0
2:55 am 02:55 Cloudy 11 -11.4 2 -16.8 65 65 SSE 8 13 30.74 1041 10 16.0934 0 0
3:15 am 03:15 Cloudy 12 -11.2 2 -16.6 65 65 SSE 7 11 30.74 1041 10 16.0934 0 0
3:35 am 03:35 Cloudy 12 -11.2 2 -16.5 65 65 SE 8 13 30.74 1041 10 16.0934 0 0
3:55 am 03:55 Cloudy 12 -11.2 2 -16.6 65 65 SSE 8 13 30.74 1041 10 16.0934 0 0
4:15 am 04:15 Cloudy 12 -11.2 2 -16.5 65 65 SSE 8 13 30.71 1040 10 16.0934 0 0
4:35 am 04:35 Cloudy 12 -11.2 2 -16.4 66 66 SSE 9 15 30.71 1040 10 16.0934 0 0
4:55 am 04:55 Cloudy 12 -11.2 2 -16.4 66 66 SSE 8 13 30.71 1040 10 16.0934 0 0
5:15 am 05:15 Cloudy 12 -11.3 3 -16.3 67 67 SE 10 17 30.71 1040 10 16.0934 0 0
5:35 am 05:35 Cloudy 11 -11.4 3 -16.3 67 67 SE 10 17 30.71 1040 10 16.0934 0 0
5:55 am 05:55 Cloudy 11 -11.5 3 -16.3 68 68 SSE 8 13 30.71 1040 10 16.0934 0 0
6:15 am 06:15 Cloudy 11 -11.6 2 -16.4 68 68 SSE 9 15 30.71 1040 10 16.0934 0 0
6:35 am 06:35 Cloudy 11 -11.9 2 -16.4 70 70 SSE 9 15 30.71 1040 10 16.0934 0 0
6:55 am 06:55 Cloudy 10 -12.1 2 -16.4 71 71 SSE 9 15 30.68 1039 10 16.0934 0 0
7:15 am 07:15 Mostly Cloudy 9 -12.6 2 -16.5 73 73 SSE 10 17 30.68 1039 10 16.0934 0 0
7:35 am 07:35 Mostly Cloudy 9 -12.6 2 -16.4 74 74 SSE 10 17 30.71 1040 10 16.0934 0 0
7:55 am 07:55 Cloudy 10 -12.5 3 -16.3 74 74 S 10 17 30.71 1040 10 16.0934 0 0
8:15 am 08:15 Partly Cloudy 10 -12.5 2 -16.4 73 73 S 10 17 30.71 1040 10 16.0934 0 0
8:35 am 08:35 Partly Cloudy 10 -12.5 2 -16.5 72 72 S 9 15 30.68 1039 10 16.0934 0 0
8:55 am 08:55 Sunny 10 -12.5 2 -16.5 72 72 S 9 15 30.71 1040 10 16.0934 0 0
9:15 am 09:15 Mostly Cloudy 10 -12 3 -16.2 71 71 S 9 15 30.71 1040 10 16.0934 0 0
9:35 am 09:35 Cloudy 11 -11.7 3 -16.2 70 70 S 8 13 30.68 1039 10 16.0934 0 0
9:55 am 09:55 Cloudy 12 -10.9 3 -16 66 66 S 10 17 30.71 1040 10 16.0934 0 0
10:15 am 10:15 Partly Cloudy 12 -11.2 3 -16 68 68 S 8 13 30.71 1040 10 16.0934 0 0
10:35 am 10:35 Partly Cloudy 14 -10 4 -15.4 65 65 S 12 19 30.68 1039 10 16.0934 0 0
10:55 am 10:55 Partly Cloudy 15 -9.2 5 -15.1 63 63 S 8 13 30.68 1039 10 16.0934 0 0
11:15 am 11:15 Sunny 17 -8.2 5 -15 58 58 S 10 17 30.62 1037 10 16.0934 0 0
11:35 am 11:35 Sunny 18 -7.7 4 -15.3 55 55 S 8 13 30.62 1037 10 16.0934 0 0
11:55 am 11:55 Sunny 18 -7.9 4 -15.3 56 56 S 8 13 30.62 1037 10 16.0934 0 0
12:15 pm 12:15 Sunny 18 -7.9 4 -15.4 55 55 S 9 15 30.59 1036 10 16.0934 0 0
12:35 pm 12:35 Partly Cloudy 19 -7 5 -15.2 52 52 S 9 15 30.59 1036 10 16.0934 0 0
12:55 pm 12:55 Mostly Cloudy 21 -6.3 4 -15.5 48 48 S 10 17 30.53 1034 10 16.0934 0 0
1:35 pm 13:35 Partly Cloudy 22 -5.4 5 -15.2 46 46 S 9 15 30.53 1034 10 16.0934 0 0
1:55 pm 13:55 Sunny 23 -5.2 4 -15.5 45 45 SSW 10 17 30.53 1034 10 16.0934 0 0
2:15 pm 14:15 Sunny 24 -4.7 5 -14.9 45 45 SSW 8 13 30.5 1033 10 16.0934 0 0
2:35 pm 14:35 Sunny 24 -4.7 5 -15.2 44 44 S 10 17 30.5 1033 10 16.0934 0 0
2:55 pm 14:55 Sunny 24 -4.6 5 -15 44 44 SSW 8 13 30.5 1033 10 16.0934 0 0
3:15 pm 15:15 Partly Cloudy 25 -4.1 6 -14.3 45 45 SSW 10 17 30.5 1033 10 16.0934 0 0
3:35 pm 15:35 Mostly Cloudy 25 -4.1 6 -14.3 45 45 SSW 10 17 30.5 1033 10 16.0934 0 0
3:55 pm 15:55 Partly Cloudy 24 -4.2 7 -13.8 48 48 SSW 8 13 30.5 1033 10 16.0934 0 0
4:15 pm 16:15 Sunny 24 -4.6 8 -13.6 50 50 SSW 8 13 30.5 1033 10 16.0934 0 0
4:35 pm 16:35 Sunny 23 -5.2 8 -13.5 53 53 SSW 7 11 30.5 1033 10 16.0934 0 0
4:55 pm 16:55 Partly Cloudy 22 -5.5 8 -13.5 54 54 SSW 6 9 30.5 1033 10 16.0934 0 0
5:15 pm 17:15 Partly Cloudy 21 -6 8 -13.5 56 56 S 3 6 30.5 1033 10 16.0934 0 0
5:35 pm 17:35 Mostly Cloudy 20 -6.5 8 -13.4 58 58 S 6 9 30.5 1033 10 16.0934 0 0
5:55 pm 17:55 Cloudy 21 -6.2 8 -13.2 58 58 Calm 30.5 1033 10 16.0934 0 0
6:15 pm 18:15 Cloudy 21 -6 8 -13.4 56 56 S 3 6 30.5 1033 10 16.0934 0 0
6:35 pm 18:35 Cloudy 21 -6 8 -13.4 56 56 SSE 5 7 30.5 1033 10 16.0934 0 0
6:55 pm 18:55 Cloudy 22 -5.7 9 -12.9 57 57 S 6 9 30.5 1033 10 16.0934 0 0
7:15 pm 19:15 Cloudy 22 -5.5 10 -12.5 58 58 S 5 7 30.5 1033 10 16.0934 0 0
7:35 pm 19:35 Cloudy 22 -5.4 9 -12.7 57 57 SSW 6 9 30.5 1033 10 16.0934 0 0
7:55 pm 19:55 Cloudy 22 -5.5 9 -12.9 56 56 SSW 9 15 30.5 1033 10 16.0934 0 0
8:15 pm 20:15 Mostly Cloudy 22 -5.6 9 -13 56 56 SSW 7 11 30.5 1033 10 16.0934 0 0
8:35 pm 20:35 Mostly Cloudy 22 -5.6 9 -12.9 57 57 SSW 5 7 30.5 1033 10 16.0934 0 0
8:55 pm 20:55 Cloudy 22 -5.5 9 -12.7 57 57 SSW 7 11 30.5 1033 10 16.0934 0 0
9:15 pm 21:15 Cloudy 22 -5.4 10 -12.5 58 58 SSW 8 13 30.5 1033 10 16.0934 0 0
9:35 pm 21:35 Cloudy 23 -5.2 10 -12.4 57 57 SSW 6 9 30.5 1033 10 16.0934 0 0
9:55 pm 21:55 Cloudy 23 -5.2 10 -12.4 57 57 SSW 9 15 30.5 1033 10 16.0934 0 0
10:15 pm 22:15 Cloudy 23 -5.2 10 -12.5 57 57 SW 7 11 30.5 1033 10 16.0934 0 0
10:35 pm 22:35 Cloudy 23 -5.2 9 -12.6 56 56 SW 8 13 30.48 1032 10 16.0934 0 0
10:55 pm 22:55 Cloudy 23 -5.1 10 -12.5 56 56 SW 8 13 30.48 1032 10 16.0934 0 0
11:15 pm 23:15 Cloudy 23 -5 9 -12.6 56 56 SW 9 15 30.48 1032 10 16.0934 0 0
11:35 pm 23:35 Cloudy 23 -5 9 -12.6 56 56 SW 9 15 30.48 1032 10 16.0934 0 0
11:55 pm 23:55 Cloudy 23 -5 10 -12.5 56 56 SW 9 15 30.48 1032 10 16.0934 0 0

Powered by AerisWeather